| time (UTC) | temp F | wind direction | speed MPH | gust MPH | rain 1hr in | rain 24hr in | rain mn in | humidity % | barometer mb |
| 20260906064602 | 60 | 0 | 0.0 | 0.0 | 0.00 | 0.00 | 0.00 | 83 | 1014.9 |
| 20260906064053 | 60 | 0 | 0.0 | 0.0 | 0.00 | 0.00 | 0.00 | 82 | 1014.9 |
| 20260906063554 | 60 | 0 | 0.0 | 0.0 | 0.00 | 0.00 | 0.00 | 82 | 1014.9 |
| 20260906063104 | 60 | 0 | 0.0 | 0.0 | 0.00 | 0.00 | 0.00 | 82 | 1014.9 |
| 20260906062551 | 61 | 0 | 0.0 | 0.0 | 0.00 | 0.00 | 0.00 | 81 | 1014.9 |
| 20260906062055 | 61 | 0 | 0.0 | 3.0 | 0.00 | 0.00 | 0.00 | 81 | 1015.1 |
| 20260906061635 | 61 | 0 | 0.0 | 3.0 | 0.00 | 0.00 | 0.00 | 81 | 1015.0 |
| 20260906061057 | 61 | 138 | 0.0 | 0.0 | 0.00 | 0.00 | 0.00 | 80 | 1015.1 |
| 20260906060557 | 61 | 0 | 0.0 | 0.0 | 0.00 | 0.00 | 0.00 | 80 | 1015.1 |
| 20260906060104 | 61 | 0 | 0.0 | 2.0 | 0.00 | 0.00 | 0.00 | 80 | 1015.0 |
| 20260906055553 | 61 | 0 | 0.0 | 3.0 | 0.00 | 0.00 | 0.00 | 80 | 1015.1 |
| 20260906055054 | 61 | 0 | 0.0 | 3.0 | 0.00 | 0.00 | 0.00 | 80 | 1015.1 |
| 20260906054604 | 61 | 0 | 0.0 | 3.0 | 0.00 | 0.00 | 0.00 | 80 | 1015.1 |
| 20260906054058 | 61 | 0 | 0.0 | 0.0 | 0.00 | 0.00 | 0.00 | 80 | 1015.1 |
| 20260906053557 | 61 | 0 | 0.0 | 0.0 | 0.00 | 0.00 | 0.00 | 79 | 1015.1 |
| 20260906053105 | 61 | 0 | 0.0 | 0.0 | 0.00 | 0.00 | 0.00 | 79 | 1015.1 |
| 20260906052554 | 61 | 0 | 0.0 | 0.0 | 0.00 | 0.00 | 0.00 | 79 | 1015.3 |
| 20260906052057 | 61 | 0 | 0.0 | 1.0 | 0.00 | 0.00 | 0.00 | 79 | 1015.2 |
| 20260906051604 | 61 | 0 | 0.0 | 1.0 | 0.00 | 0.00 | 0.00 | 78 | 1015.2 |
| 20260906051054 | 61 | 0 | 0.0 | 0.0 | 0.00 | 0.00 | 0.00 | 78 | 1015.3 |
| 20260906050553 | 62 | 0 | 0.0 | 0.0 | 0.00 | 0.00 | 0.00 | 78 | 1015.4 |
| 20260906050116 | 62 | 0 | 0.0 | 0.0 | 0.00 | 0.00 | 0.00 | 78 | 1015.2 |
| 20260906045554 | 62 | 0 | 0.0 | 0.0 | 0.00 | 0.00 | 0.00 | 77 | 1015.3 |
| 20260906045057 | 62 | 0 | 0.0 | 0.0 | 0.00 | 0.00 | 0.00 | 77 | 1015.3 |
| 20260906044614 | 62 | 0 | 0.0 | 0.0 | 0.00 | 0.00 | 0.00 | 77 | 1015.3 |
| 20260906044057 | 62 | 0 | 0.0 | 0.0 | 0.00 | 0.00 | 0.00 | 77 | 1015.2 |
| 20260906043556 | 62 | 0 | 0.0 | 0.0 | 0.00 | 0.00 | 0.00 | 76 | 1015.3 |
| 20260906043112 | 63 | 0 | 0.0 | 0.0 | 0.00 | 0.00 | 0.00 | 76 | 1015.2 |
| 20260906042557 | 63 | 0 | 0.0 | 0.0 | 0.00 | 0.00 | 0.00 | 75 | 1015.1 |
| 20260906042057 | 63 | 0 | 0.0 | 0.0 | 0.00 | 0.00 | 0.00 | 75 | 1015.0 |
| 20260906041620 | 63 | 0 | 0.0 | 1.0 | 0.00 | 0.00 | 0.00 | 74 | 1014.9 |
| 20260906041100 | 63 | 0 | 0.0 | 3.0 | 0.00 | 0.00 | 0.00 | 74 | 1014.9 |
| 20260906040553 | 63 | 0 | 0.0 | 5.0 | 0.00 | 0.00 | 0.00 | 75 | 1014.9 |
| 20260906040120 | 63 | 0 | 0.0 | 5.0 | 0.00 | 0.00 | 0.00 | 74 | 1014.8 |
| 20260906035556 | 63 | 290 | 0.0 | 6.0 | 0.00 | 0.00 | 0.00 | 74 | 1014.8 |
| 20260906035056 | 64 | 271 | 0.0 | 6.0 | 0.00 | 0.00 | 0.00 | 74 | 1014.6 |
| 20260906034602 | 64 | 300 | 0.0 | 9.0 | 0.00 | 0.00 | 0.00 | 73 | 1014.6 |
| 20260906034056 | 64 | 296 | 1.0 | 9.0 | 0.00 | 0.00 | 0.00 | 73 | 1014.6 |
| 20260906033556 | 64 | 348 | 2.0 | 9.0 | 0.00 | 0.00 | 0.00 | 73 | 1014.6 |
| 20260906033108 | 64 | 360 | 3.0 | 7.0 | 0.00 | 0.00 | 0.00 | 76 | 1014.6 |
| 20260906032559 | 64 | 0 | 0.0 | 4.0 | 0.00 | 0.00 | 0.00 | 80 | 1014.5 |
| 20260906032056 | 64 | 0 | 0.0 | 4.0 | 0.00 | 0.00 | 0.00 | 80 | 1014.4 |
| 20260906031612 | 64 | 108 | 2.0 | 4.0 | 0.00 | 0.00 | 0.00 | 81 | 1014.4 |
| 20260906031057 | 64 | 0 | 0.0 | 4.0 | 0.00 | 0.00 | 0.00 | 81 | 1014.2 |
| 20260906030557 | 64 | 112 | 1.0 | 4.0 | 0.00 | 0.00 | 0.00 | 81 | 1014.3 |
| 20260906030113 | 64 | 143 | 2.0 | 4.0 | 0.00 | 0.00 | 0.00 | 81 | 1014.3 |
| 20260906025556 | 64 | 167 | 1.0 | 4.0 | 0.00 | 0.00 | 0.00 | 81 | 1014.3 |
| 20260906025056 | 64 | 192 | 0.0 | 3.0 | 0.00 | 0.00 | 0.00 | 81 | 1014.2 |
| 20260906024608 | 64 | 0 | 0.0 | 3.0 | 0.00 | 0.00 | 0.00 | 80 | 1014.2 |
| 20260906024059 | 64 | 215 | 0.0 | 2.0 | 0.00 | 0.00 | 0.00 | 80 | 1014.2 |
| 20260906023555 | 65 | 227 | 0.0 | 4.0 | 0.00 | 0.00 | 0.00 | 80 | 1014.2 |
| 20260906023131 | 65 | 0 | 0.0 | 5.0 | 0.00 | 0.00 | 0.00 | 80 | 1014.2 |
| 20260906022556 | 65 | 237 | 0.0 | 5.0 | 0.00 | 0.00 | 0.00 | 79 | 1014.2 |
| 20260906022059 | 65 | 0 | 1.0 | 5.0 | 0.00 | 0.00 | 0.00 | 79 | 1014.2 |
| 20260906021608 | 65 | 323 | 0.0 | 6.0 | 0.00 | 0.00 | 0.00 | 79 | 1014.2 |
| 20260906021059 | 65 | 213 | 2.0 | 6.0 | 0.00 | 0.00 | 0.00 | 78 | 1014.3 |
| 20260906020557 | 65 | 251 | 0.0 | 7.0 | 0.00 | 0.00 | 0.00 | 78 | 1014.2 |
| 20260906020101 | 65 | 222 | 1.0 | 7.0 | 0.00 | 0.00 | 0.00 | 78 | 1014.3 |
| 20260906015557 | 65 | 221 | 0.0 | 4.0 | 0.00 | 0.00 | 0.00 | 77 | 1014.3 |
| 20260906015057 | 65 | 193 | 1.0 | 7.0 | 0.00 | 0.00 | 0.00 | 77 | 1014.3 |
| 20260906014626 | 65 | 243 | 2.0 | 7.0 | 0.00 | 0.00 | 0.00 | 77 | 1014.2 |
| 20260906014054 | 65 | 271 | 2.0 | 7.0 | 0.00 | 0.00 | 0.00 | 77 | 1014.3 |
| 20260906013557 | 66 | 215 | 1.0 | 9.0 | 0.00 | 0.00 | 0.00 | 77 | 1014.3 |
| 20260906013101 | 66 | 0 | 3.0 | 9.0 | 0.00 | 0.00 | 0.00 | 76 | 1014.3 |
| 20260906012557 | 66 | 165 | 2.0 | 7.0 | 0.00 | 0.00 | 0.00 | 76 | 1014.3 |
| 20260906012056 | 66 | 218 | 2.0 | 7.0 | 0.00 | 0.00 | 0.00 | 76 | 1014.3 |
| 20260906011601 | 66 | 205 | 3.0 | 7.0 | 0.00 | 0.00 | 0.00 | 75 | 1014.3 |
| 20260906011056 | 67 | 215 | 2.0 | 7.0 | 0.00 | 0.00 | 0.00 | 75 | 1014.4 |
| 20260906010556 | 67 | 173 | 2.0 | 7.0 | 0.00 | 0.00 | 0.00 | 74 | 1014.4 |
| 20260906005557 | 67 | 166 | 1.0 | 8.0 | 0.00 | 0.00 | 0.00 | 74 | 1014.4 |
| 20260906005058 | 68 | 220 | 2.0 | 6.0 | 0.00 | 0.00 | 0.00 | 72 | 1014.5 |
| 20260906004614 | 68 | 225 | 0.0 | 9.0 | 0.00 | 0.00 | 0.00 | 73 | 1014.4 |
| 20260906004055 | 68 | 197 | 0.0 | 10.0 | 0.00 | 0.00 | 0.00 | 72 | 1014.4 |
| 20260906003557 | 68 | 188 | 2.0 | 10.0 | 0.00 | 0.00 | 0.00 | 72 | 1014.4 |
| 20260906003109 | 68 | 221 | 4.0 | 10.0 | 0.00 | 0.00 | 0.00 | 70 | 1014.4 |
| 20260906002557 | 69 | 225 | 1.0 | 8.0 | 0.00 | 0.00 | 0.00 | 69 | 1014.3 |
| 20260906002057 | 70 | 238 | 3.0 | 8.0 | 0.00 | 0.00 | 0.00 | 68 | 1014.4 |
| 20260906001603 | 70 | 333 | 2.0 | 10.0 | 0.00 | 0.00 | 0.00 | 69 | 1014.3 |
| 20260906001056 | 70 | 252 | 1.0 | 10.0 | 0.00 | 0.00 | 0.00 | 70 | 1014.3 |
| 20260906000556 | 70 | 288 | 2.0 | 9.0 | 0.00 | 0.00 | 0.00 | 70 | 1014.3 |
| 20260906000110 | 70 | 254 | 1.0 | 11.0 | 0.00 | 0.00 | 0.00 | 70 | 1014.3 |
| 20260905235556 | 69 | 0 | 2.0 | 11.0 | 0.00 | 0.00 | 0.00 | 71 | 1014.3 |
| 20260905235056 | 69 | 232 | 4.0 | 11.0 | 0.00 | 0.00 | 0.00 | 71 | 1014.3 |
| 20260905234606 | 69 | 328 | 3.0 | 13.0 | 0.00 | 0.00 | 0.00 | 73 | 1014.3 |
| 20260905234057 | 68 | 242 | 3.0 | 14.0 | 0.00 | 0.00 | 0.00 | 73 | 1014.3 |
| 20260905233557 | 68 | 263 | 5.0 | 16.0 | 0.00 | 0.00 | 0.00 | 74 | 1014.4 |
| 20260905233109 | 68 | 281 | 5.0 | 16.0 | 0.00 | 0.00 | 0.00 | 74 | 1014.4 |
| 20260905232554 | 68 | 187 | 3.0 | 10.0 | 0.00 | 0.00 | 0.00 | 76 | 1014.4 |
| 20260905232053 | 68 | 160 | 3.0 | 14.0 | 0.00 | 0.00 | 0.00 | 77 | 1014.4 |
| 20260905231607 | 68 | 238 | 5.0 | 16.0 | 0.00 | 0.00 | 0.00 | 77 | 1014.5 |
| 20260905231051 | 69 | 225 | 2.0 | 16.0 | 0.00 | 0.00 | 0.00 | 76 | 1014.6 |
| 20260905230555 | 69 | 260 | 3.0 | 9.0 | 0.00 | 0.00 | 0.00 | 76 | 1014.7 |
| 20260905230108 | 69 | 244 | 1.0 | 8.0 | 0.00 | 0.00 | 0.00 | 74 | 1014.7 |
| 20260905225552 | 69 | 155 | 2.0 | 9.0 | 0.00 | 0.00 | 0.00 | 73 | 1014.9 |
| 20260905225051 | 69 | 246 | 2.0 | 9.0 | 0.00 | 0.00 | 0.00 | 75 | 1014.9 |
| 20260905224609 | 69 | 182 | 1.0 | 7.0 | 0.00 | 0.00 | 0.00 | 75 | 1014.9 |
| 20260905224054 | 69 | 218 | 2.0 | 8.0 | 0.00 | 0.00 | 0.00 | 76 | 1015.0 |
| 20260905223554 | 68 | 169 | 4.0 | 8.0 | 0.00 | 0.00 | 0.00 | 76 | 1014.9 |
| 20260905223103 | 68 | 175 | 2.0 | 9.0 | 0.00 | 0.00 | 0.00 | 77 | 1015.1 |
| 20260905222556 | 68 | 242 | 1.0 | 11.0 | 0.00 | 0.00 | 0.00 | 76 | 1015.0 |
| 20260905222057 | 68 | 0 | 5.0 | 11.0 | 0.00 | 0.00 | 0.00 | 76 | 1015.0 |
| 20260905221606 | 68 | 149 | 2.0 | 11.0 | 0.00 | 0.00 | 0.00 | 76 | 1015.1 |
| 20260905221052 | 68 | 129 | 2.0 | 11.0 | 0.00 | 0.00 | 0.00 | 77 | 1015.2 |
| 20260905220556 | 68 | 223 | 3.0 | 13.0 | 0.00 | 0.00 | 0.00 | 77 | 1015.2 |
| 20260905220123 | 68 | 227 | 2.0 | 13.0 | 0.00 | 0.00 | 0.00 | 77 | 1015.3 |
| 20260905215554 | 68 | 238 | 3.0 | 14.0 | 0.00 | 0.00 | 0.00 | 76 | 1015.3 |
| 20260905215053 | 68 | 288 | 5.0 | 14.0 | 0.00 | 0.00 | 0.00 | 75 | 1015.3 |
| 20260905214605 | 68 | 211 | 4.0 | 13.0 | 0.00 | 0.00 | 0.00 | 75 | 1015.3 |
| 20260905214056 | 69 | 194 | 7.0 | 13.0 | 0.00 | 0.00 | 0.00 | 73 | 1015.3 |
| 20260905213554 | 70 | 216 | 2.0 | 10.0 | 0.00 | 0.00 | 0.00 | 71 | 1015.2 |
| 20260905213108 | 70 | 241 | 3.0 | 9.0 | 0.00 | 0.00 | 0.00 | 70 | 1015.2 |
| 20260905212551 | 70 | 333 | 2.0 | 11.0 | 0.00 | 0.00 | 0.00 | 69 | 1015.1 |
| 20260905212053 | 69 | 245 | 4.0 | 11.0 | 0.00 | 0.00 | 0.00 | 69 | 1015.2 |
| 20260905211611 | 70 | 246 | 4.0 | 11.0 | 0.00 | 0.00 | 0.00 | 68 | 1015.3 |
| 20260905211055 | 70 | 321 | 1.0 | 11.0 | 0.00 | 0.00 | 0.00 | 70 | 1015.4 |
| 20260905210552 | 70 | 242 | 2.0 | 8.0 | 0.00 | 0.00 | 0.00 | 70 | 1015.3 |
| 20260905210109 | 70 | 200 | 2.0 | 8.0 | 0.00 | 0.00 | 0.00 | 71 | 1015.3 |
| 20260905205551 | 69 | 221 | 2.0 | 8.0 | 0.00 | 0.00 | 0.00 | 72 | 1015.4 |
| 20260905205057 | 69 | 202 | 3.0 | 7.0 | 0.00 | 0.00 | 0.00 | 75 | 1015.4 |
| 20260905204605 | 69 | 261 | 2.0 | 9.0 | 0.00 | 0.00 | 0.00 | 74 | 1015.3 |
| 20260905204051 | 70 | 250 | 3.0 | 9.0 | 0.00 | 0.00 | 0.00 | 73 | 1015.4 |
| 20260905203556 | 70 | 243 | 1.0 | 6.0 | 0.00 | 0.00 | 0.00 | 73 | 1015.3 |
| 20260905203102 | 69 | 320 | 1.0 | 6.0 | 0.00 | 0.00 | 0.00 | 73 | 1015.3 |
| 20260905202551 | 69 | 206 | 1.0 | 7.0 | 0.00 | 0.00 | 0.00 | 74 | 1015.2 |
| 20260905202056 | 69 | 298 | 1.0 | 7.0 | 0.00 | 0.00 | 0.00 | 75 | 1015.3 |
| 20260905201604 | 68 | 181 | 2.0 | 7.0 | 0.00 | 0.00 | 0.00 | 75 | 1015.2 |
| 20260905201053 | 68 | 267 | 3.0 | 10.0 | 0.00 | 0.00 | 0.00 | 75 | 1015.4 |
| 20260905200551 | 68 | 223 | 2.0 | 10.0 | 0.00 | 0.00 | 0.00 | 76 | 1015.4 |
| 20260905200106 | 68 | 244 | 3.0 | 10.0 | 0.00 | 0.00 | 0.00 | 76 | 1015.4 |
| 20260905195552 | 68 | 268 | 2.0 | 8.0 | 0.00 | 0.00 | 0.00 | 77 | 1015.5 |
| 20260905195053 | 68 | 259 | 3.0 | 8.0 | 0.00 | 0.00 | 0.00 | 77 | 1015.5 |
| 20260905194602 | 68 | 228 | 1.0 | 9.0 | 0.00 | 0.00 | 0.00 | 78 | 1015.6 |
| 20260905194051 | 68 | 266 | 3.0 | 10.0 | 0.00 | 0.00 | 0.00 | 77 | 1015.7 |
| 20260905193550 | 68 | 178 | 3.0 | 10.0 | 0.00 | 0.00 | 0.00 | 77 | 1015.6 |
| 20260905193102 | 69 | 217 | 2.0 | 9.0 | 0.00 | 0.00 | 0.00 | 76 | 1015.6 |
| 20260905192552 | 69 | 307 | 1.0 | 6.0 | 0.00 | 0.00 | 0.00 | 76 | 1015.6 |
| 20260905192053 | 69 | 258 | 1.0 | 7.0 | 0.00 | 0.00 | 0.00 | 76 | 1015.6 |
| 20260905191604 | 69 | 221 | 2.0 | 7.0 | 0.00 | 0.00 | 0.00 | 76 | 1015.6 |
| 20260905191051 | 69 | 322 | 1.0 | 7.0 | 0.00 | 0.00 | 0.00 | 75 | 1015.6 |
| 20260905190551 | 69 | 284 | 1.0 | 10.0 | 0.00 | 0.00 | 0.00 | 74 | 1015.6 |
| 20260905190113 | 69 | 266 | 3.0 | 10.0 | 0.00 | 0.00 | 0.00 | 74 | 1015.5 |
| 20260905185553 | 69 | 265 | 1.0 | 6.0 | 0.00 | 0.00 | 0.00 | 73 | 1015.5 |
| 20260905185052 | 69 | 272 | 2.0 | 8.0 | 0.00 | 0.00 | 0.00 | 73 | 1015.5 |
| 20260905184604 | 69 | 268 | 2.0 | 8.0 | 0.00 | 0.00 | 0.00 | 72 | 1015.5 |
| 20260905184051 | 69 | 221 | 1.0 | 6.0 | 0.00 | 0.00 | 0.00 | 72 | 1015.5 |
| 20260905183551 | 69 | 236 | 1.0 | 7.0 | 0.00 | 0.00 | 0.00 | 72 | 1015.5 |
| 20260905183125 | 69 | 270 | 1.0 | 7.0 | 0.00 | 0.00 | 0.00 | 72 | 1015.5 |
| 20260905182551 | 69 | 267 | 2.0 | 7.0 | 0.00 | 0.00 | 0.00 | 72 | 1015.6 |
| 20260905182052 | 69 | 278 | 1.0 | 6.0 | 0.00 | 0.00 | 0.00 | 72 | 1015.6 |
| 20260905181610 | 68 | 241 | 1.0 | 6.0 | 0.00 | 0.00 | 0.00 | 72 | 1015.6 |
| 20260905181053 | 68 | 0 | 2.0 | 6.0 | 0.00 | 0.00 | 0.00 | 72 | 1015.5 |
| 20260905180554 | 68 | 238 | 2.0 | 7.0 | 0.00 | 0.00 | 0.00 | 74 | 1015.6 |
| 20260905180106 | 68 | 252 | 2.0 | 7.0 | 0.00 | 0.00 | 0.00 | 74 | 1015.6 |
| 20260905175551 | 67 | 192 | 2.0 | 7.0 | 0.00 | 0.00 | 0.00 | 75 | 1015.5 |
| 20260905175054 | 67 | 271 | 2.0 | 7.0 | 0.00 | 0.00 | 0.00 | 75 | 1015.5 |
| 20260905174606 | 67 | 202 | 1.0 | 7.0 | 0.00 | 0.00 | 0.00 | 75 | 1015.6 |
| 20260905174052 | 67 | 234 | 2.0 | 7.0 | 0.00 | 0.00 | 0.00 | 75 | 1015.6 |
| 20260905173552 | 67 | 225 | 1.0 | 5.0 | 0.00 | 0.00 | 0.00 | 76 | 1015.5 |
| 20260905173103 | 67 | 226 | 1.0 | 5.0 | 0.00 | 0.00 | 0.00 | 76 | 1015.5 |
| 20260905172555 | 67 | 200 | 2.0 | 7.0 | 0.00 | 0.00 | 0.00 | 75 | 1015.5 |
| 20260905172052 | 67 | 134 | 3.0 | 7.0 | 0.00 | 0.00 | 0.00 | 75 | 1015.5 |
| 20260905171606 | 67 | 219 | 1.0 | 6.0 | 0.00 | 0.00 | 0.00 | 76 | 1015.4 |
| 20260905171051 | 66 | 266 | 1.0 | 6.0 | 0.00 | 0.00 | 0.00 | 76 | 1015.4 |
| 20260905170552 | 66 | 185 | 2.0 | 6.0 | 0.00 | 0.00 | 0.00 | 77 | 1015.3 |
| 20260905165551 | 66 | 0 | 0.0 | 5.0 | 0.00 | 0.00 | 0.00 | 78 | 1015.2 |
| 20260905165051 | 65 | 244 | 2.0 | 6.0 | 0.00 | 0.00 | 0.00 | 79 | 1015.3 |
| 20260905164608 | 65 | 0 | 2.0 | 6.0 | 0.00 | 0.00 | 0.00 | 78 | 1015.2 |
| 20260905164054 | 65 | 229 | 1.0 | 7.0 | 0.00 | 0.00 | 0.00 | 79 | 1015.2 |
| 20260905163554 | 65 | 121 | 2.0 | 8.0 | 0.00 | 0.00 | 0.00 | 80 | 1015.3 |
| 20260905163106 | 65 | 170 | 2.0 | 8.0 | 0.00 | 0.00 | 0.00 | 80 | 1015.2 |
| 20260905162552 | 65 | 215 | 4.0 | 8.0 | 0.00 | 0.00 | 0.00 | 79 | 1015.2 |
| 20260905162051 | 64 | 113 | 1.0 | 8.0 | 0.00 | 0.00 | 0.00 | 81 | 1015.2 |
| 20260905161602 | 64 | 0 | 1.0 | 8.0 | 0.00 | 0.00 | 0.00 | 82 | 1015.2 |
| 20260905161054 | 63 | 156 | 2.0 | 7.0 | 0.00 | 0.00 | 0.00 | 81 | 1015.2 |
| 20260905160557 | 63 | 138 | 3.0 | 7.0 | 0.00 | 0.00 | 0.00 | 82 | 1015.2 |
| 20260905160124 | 63 | 167 | 2.0 | 7.0 | 0.00 | 0.00 | 0.00 | 82 | 1015.2 |
| 20260905155551 | 62 | 144 | 3.0 | 9.0 | 0.00 | 0.00 | 0.00 | 83 | 1015.2 |
| 20260905155054 | 62 | 131 | 3.0 | 9.0 | 0.00 | 0.00 | 0.00 | 83 | 1015.3 |
| 20260905154607 | 62 | 133 | 3.0 | 8.0 | 0.00 | 0.00 | 0.00 | 83 | 1015.3 |
| 20260905154055 | 62 | 150 | 1.0 | 8.0 | 0.00 | 0.00 | 0.00 | 85 | 1015.3 |
| 20260905153552 | 62 | 171 | 3.0 | 9.0 | 0.00 | 0.00 | 0.00 | 85 | 1015.3 |
| 20260905153112 | 61 | 158 | 3.0 | 9.0 | 0.00 | 0.00 | 0.00 | 86 | 1015.3 |
| 20260905152552 | 61 | 141 | 4.0 | 9.0 | 0.00 | 0.00 | 0.00 | 87 | 1015.3 |
| 20260905152058 | 61 | 150 | 3.0 | 7.0 | 0.00 | 0.00 | 0.00 | 89 | 1015.3 |
| 20260905151604 | 60 | 136 | 3.0 | 8.0 | 0.00 | 0.00 | 0.00 | 89 | 1015.1 |
| 20260905151050 | 60 | 147 | 4.0 | 8.0 | 0.00 | 0.00 | 0.00 | 90 | 1015.2 |
| 20260905150551 | 60 | 143 | 2.0 | 5.0 | 0.00 | 0.00 | 0.00 | 91 | 1015.2 |
| 20260905150105 | 60 | 137 | 1.0 | 7.0 | 0.00 | 0.00 | 0.00 | 92 | 1015.1 |
| 20260905145556 | 59 | 116 | 0.0 | 7.0 | 0.00 | 0.00 | 0.00 | 92 | 1015.2 |
| 20260905145058 | 59 | 154 | 1.0 | 6.0 | 0.00 | 0.00 | 0.00 | 93 | 1015.1 |
| 20260905144606 | 58 | 121 | 2.0 | 6.0 | 0.00 | 0.00 | 0.00 | 93 | 1015.0 |
| 20260905144055 | 58 | 124 | 2.0 | 6.0 | 0.00 | 0.00 | 0.00 | 94 | 1015.0 |
| 20260905143553 | 57 | 130 | 2.0 | 6.0 | 0.00 | 0.00 | 0.00 | 94 | 1015.1 |
| 20260905143109 | 57 | 128 | 1.0 | 4.0 | 0.00 | 0.00 | 0.00 | 94 | 1015.0 |
| 20260905142554 | 56 | 116 | 1.0 | 4.0 | 0.00 | 0.00 | 0.00 | 94 | 1014.9 |
| 20260905142053 | 56 | 128 | 1.0 | 4.0 | 0.00 | 0.00 | 0.00 | 94 | 1015.0 |
| 20260905141603 | 56 | 110 | 1.0 | 3.0 | 0.00 | 0.00 | 0.00 | 94 | 1014.9 |
| 20260905141054 | 56 | 115 | 1.0 | 3.0 | 0.00 | 0.00 | 0.00 | 94 | 1014.9 |
| 20260905140551 | 56 | 118 | 0.0 | 3.0 | 0.00 | 0.00 | 0.00 | 94 | 1014.7 |
| 20260905140110 | 56 | 0 | 0.0 | 3.0 | 0.00 | 0.00 | 0.00 | 94 | 1014.8 |
| 20260905135555 | 56 | 0 | 1.0 | 3.0 | 0.00 | 0.00 | 0.00 | 94 | 1014.6 |
| 20260905135054 | 55 | 109 | 0.0 | 3.0 | 0.00 | 0.00 | 0.00 | 94 | 1014.6 |
| 20260905134607 | 55 | 0 | 0.0 | 3.0 | 0.00 | 0.00 | 0.00 | 94 | 1014.5 |
| 20260905134052 | 55 | 113 | 0.0 | 3.0 | 0.00 | 0.00 | 0.00 | 94 | 1014.5 |
| 20260905133554 | 55 | 0 | 0.0 | 2.0 | 0.00 | 0.00 | 0.00 | 94 | 1014.6 |
| 20260905133107 | 55 | 112 | 0.0 | 1.0 | 0.00 | 0.00 | 0.00 | 94 | 1014.6 |
| 20260905132554 | 55 | 0 | 0.0 | 2.0 | 0.00 | 0.00 | 0.00 | 94 | 1014.5 |
| 20260905132050 | 55 | 0 | 0.0 | 2.0 | 0.00 | 0.00 | 0.00 | 94 | 1014.5 |
| 20260905131611 | 55 | 109 | 0.0 | 3.0 | 0.00 | 0.00 | 0.00 | 94 | 1014.5 |
| 20260905131055 | 55 | 101 | 0.0 | 4.0 | 0.00 | 0.00 | 0.00 | 94 | 1014.5 |
| 20260905130555 | 55 | 111 | 1.0 | 4.0 | 0.00 | 0.00 | 0.00 | 94 | 1014.5 |
| 20260905130117 | 55 | 131 | 1.0 | 4.0 | 0.00 | 0.00 | 0.00 | 94 | 1014.5 |
| 20260905125554 | 55 | 111 | 1.0 | 4.0 | 0.00 | 0.00 | 0.00 | 94 | 1014.5 |
| 20260905125056 | 55 | 117 | 0.0 | 2.0 | 0.00 | 0.00 | 0.00 | 94 | 1014.6 |
| 20260905124605 | 55 | 0 | 0.0 | 1.0 | 0.00 | 0.00 | 0.00 | 93 | 1014.6 |
| 20260905124053 | 55 | 0 | 0.0 | 1.0 | 0.00 | 0.00 | 0.00 | 94 | 1014.6 |
| 20260905123551 | 55 | 0 | 0.0 | 1.0 | 0.00 | 0.00 | 0.00 | 93 | 1014.6 |
| 20260905123110 | 55 | 0 | 0.0 | 1.0 | 0.00 | 0.00 | 0.00 | 93 | 1014.6 |
| 20260905122554 | 55 | 0 | 0.0 | 1.0 | 0.00 | 0.00 | 0.00 | 93 | 1014.6 |
| 20260905122054 | 55 | 0 | 0.0 | 3.0 | 0.00 | 0.00 | 0.00 | 93 | 1014.6 |
| 20260905121605 | 55 | 0 | 0.0 | 3.0 | 0.00 | 0.00 | 0.00 | 93 | 1014.6 |
| 20260905121055 | 55 | 0 | 0.0 | 3.0 | 0.00 | 0.00 | 0.00 | 93 | 1014.5 |
| 20260905120557 | 55 | 0 | 0.0 | 2.0 | 0.00 | 0.00 | 0.00 | 93 | 1014.5 |
| 20260905120114 | 55 | 130 | 0.0 | 2.0 | 0.00 | 0.00 | 0.00 | 93 | 1014.5 |
| 20260905115557 | 55 | 0 | 0.0 | 2.0 | 0.00 | 0.00 | 0.00 | 93 | 1014.5 |
| 20260905115051 | 55 | 0 | 0.0 | 2.0 | 0.00 | 0.00 | 0.00 | 93 | 1014.6 |
| 20260905114605 | 55 | 0 | 0.0 | 0.0 | 0.00 | 0.00 | 0.00 | 93 | 1014.6 |
| 20260905114055 | 55 | 0 | 0.0 | 0.0 | 0.00 | 0.00 | 0.00 | 93 | 1014.6 |
| 20260905113555 | 56 | 0 | 0.0 | 1.0 | 0.00 | 0.00 | 0.00 | 93 | 1014.6 |
| 20260905113106 | 56 | 0 | 0.0 | 1.0 | 0.00 | 0.00 | 0.00 | 93 | 1014.6 |
| 20260905112553 | 56 | 0 | 0.0 | 1.0 | 0.00 | 0.00 | 0.00 | 93 | 1014.6 |
| 20260905112053 | 56 | 0 | 0.0 | 0.0 | 0.00 | 0.00 | 0.00 | 92 | 1014.6 |
| 20260905111614 | 56 | 0 | 0.0 | 0.0 | 0.00 | 0.00 | 0.00 | 93 | 1014.6 |
| 20260905111052 | 56 | 0 | 0.0 | 2.0 | 0.00 | 0.00 | 0.00 | 93 | 1014.6 |
| 20260905110558 | 56 | 0 | 0.0 | 2.0 | 0.00 | 0.00 | 0.00 | 93 | 1014.6 |
| 20260905105556 | 56 | 0 | 0.0 | 2.0 | 0.00 | 0.00 | 0.00 | 92 | 1014.6 |
| 20260905105054 | 56 | 0 | 0.0 | 3.0 | 0.00 | 0.00 | 0.00 | 92 | 1014.6 |
| 20260905104612 | 56 | 0 | 0.0 | 3.0 | 0.00 | 0.00 | 0.00 | 92 | 1014.5 |
| 20260905104058 | 56 | 0 | 0.0 | 3.0 | 0.00 | 0.00 | 0.00 | 92 | 1014.5 |
| 20260905103555 | 56 | 117 | 1.0 | 3.0 | 0.00 | 0.00 | 0.00 | 92 | 1014.6 |
| 20260905103101 | 56 | 0 | 0.0 | 3.0 | 0.00 | 0.00 | 0.00 | 92 | 1014.6 |
| 20260905102551 | 56 | 111 | 1.0 | 4.0 | 0.00 | 0.00 | 0.00 | 92 | 1014.6 |
| 20260905102055 | 56 | 109 | 1.0 | 6.0 | 0.00 | 0.00 | 0.00 | 92 | 1014.7 |
| 20260905101606 | 56 | 0 | 2.0 | 6.0 | 0.00 | 0.00 | 0.00 | 92 | 1014.9 |
| 20260905101055 | 56 | 134 | 1.0 | 3.0 | 0.00 | 0.00 | 0.00 | 91 | 1014.9 |
| 20260905100555 | 56 | 122 | 1.0 | 3.0 | 0.00 | 0.00 | 0.00 | 91 | 1014.9 |
| 20260905100101 | 56 | 113 | 0.0 | 3.0 | 0.00 | 0.00 | 0.00 | 91 | 1014.9 |
| 20260905095555 | 56 | 139 | 0.0 | 2.0 | 0.00 | 0.00 | 0.00 | 91 | 1014.9 |
| 20260905095057 | 56 | 0 | 0.0 | 2.0 | 0.00 | 0.00 | 0.00 | 91 | 1014.7 |
| 20260905094602 | 56 | 134 | 0.0 | 2.0 | 0.00 | 0.00 | 0.00 | 91 | 1014.7 |
| 20260905094055 | 57 | 0 | 0.0 | 3.0 | 0.00 | 0.00 | 0.00 | 91 | 1014.8 |
| 20260905093556 | 56 | 118 | 0.0 | 3.0 | 0.00 | 0.00 | 0.00 | 90 | 1014.7 |
| 20260905093105 | 56 | 0 | 0.0 | 3.0 | 0.00 | 0.00 | 0.00 | 90 | 1014.7 |
| 20260905092557 | 56 | 113 | 1.0 | 3.0 | 0.00 | 0.00 | 0.00 | 90 | 1014.9 |
| 20260905092054 | 56 | 144 | 1.0 | 4.0 | 0.00 | 0.00 | 0.00 | 90 | 1014.9 |
| 20260905091609 | 56 | 112 | 1.0 | 4.0 | 0.00 | 0.00 | 0.00 | 90 | 1015.0 |
| 20260905091057 | 56 | 111 | 1.0 | 3.0 | 0.00 | 0.00 | 0.00 | 90 | 1015.0 |
| 20260905090552 | 56 | 118 | 1.0 | 3.0 | 0.00 | 0.00 | 0.00 | 90 | 1015.0 |
| 20260905090108 | 56 | 136 | 0.0 | 3.0 | 0.00 | 0.00 | 0.00 | 89 | 1015.1 |
| 20260905085555 | 56 | 123 | 0.0 | 3.0 | 0.00 | 0.00 | 0.00 | 89 | 1015.1 |
| 20260905085054 | 56 | 119 | 1.0 | 3.0 | 0.00 | 0.00 | 0.00 | 89 | 1015.1 |
| 20260905084619 | 56 | 124 | 1.0 | 3.0 | 0.00 | 0.00 | 0.00 | 89 | 1015.1 |
| 20260905084052 | 56 | 123 | 1.0 | 3.0 | 0.00 | 0.00 | 0.00 | 89 | 1015.2 |
| 20260905083556 | 56 | 143 | 1.0 | 4.0 | 0.00 | 0.00 | 0.00 | 90 | 1015.1 |
| 20260905083103 | 56 | 132 | 1.0 | 4.0 | 0.00 | 0.00 | 0.00 | 90 | 1015.1 |
| 20260905082554 | 56 | 127 | 1.0 | 4.0 | 0.00 | 0.00 | 0.00 | 90 | 1015.1 |
| 20260905082054 | 56 | 136 | 1.0 | 3.0 | 0.00 | 0.00 | 0.00 | 89 | 1015.2 |
| 20260905081603 | 56 | 132 | 1.0 | 4.0 | 0.00 | 0.00 | 0.00 | 89 | 1015.2 |
| 20260905081055 | 56 | 141 | 1.0 | 4.0 | 0.00 | 0.00 | 0.00 | 89 | 1015.1 |
| 20260905080555 | 56 | 0 | 0.0 | 0.0 | 0.00 | 0.00 | 0.00 | 89 | 1015.0 |
| 20260905080101 | 56 | 0 | 0.0 | 0.0 | 0.00 | 0.00 | 0.00 | 89 | 1015.1 |
| 20260905075557 | 56 | 0 | 0.0 | 0.0 | 0.00 | 0.00 | 0.00 | 89 | 1015.1 |
| 20260905075054 | 56 | 0 | 0.0 | 0.0 | 0.00 | 0.00 | 0.00 | 89 | 1015.1 |
| 20260905074606 | 56 | 0 | 0.0 | 0.0 | 0.00 | 0.00 | 0.00 | 89 | 1015.1 |
| 20260905074052 | 56 | 0 | 0.0 | 0.0 | 0.00 | 0.00 | 0.00 | 88 | 1015.1 |
| 20260905073554 | 56 | 0 | 0.0 | 0.0 | 0.00 | 0.00 | 0.00 | 88 | 1015.0 |
| 20260905073108 | 56 | 0 | 0.0 | 0.0 | 0.00 | 0.00 | 0.00 | 88 | 1015.0 |
| 20260905072553 | 56 | 0 | 0.0 | 0.0 | 0.00 | 0.00 | 0.00 | 88 | 1015.0 |
| 20260905072051 | 56 | 0 | 0.0 | 0.0 | 0.00 | 0.00 | 0.00 | 88 | 1014.9 |
| 20260905071603 | 56 | 0 | 0.0 | 0.0 | 0.00 | 0.00 | 0.00 | 88 | 1014.9 |
| 20260905071058 | 57 | 0 | 0.0 | 0.0 | 0.00 | 0.00 | 0.00 | 87 | 1015.0 |
| 20260905070554 | 57 | 0 | 0.0 | 0.0 | 0.00 | 0.00 | 0.00 | 87 | 1015.0 |
| 20260905070107 | 57 | 0 | 0.0 | 0.0 | 0.00 | 0.00 | 0.00 | 87 | 1015.0 |
| 20260905065551 | 57 | 0 | 0.0 | 0.0 | 0.00 | 0.01 | 0.00 | 87 | 1014.9 |
| 20260905065055 | 57 | 0 | 0.0 | 0.0 | 0.00 | 0.01 | 0.00 | 87 | 1014.9 |